| time (UTC) | temp C | wind direction | speed KPH | gust KPH | rain 1hr cm | rain 24hr cm | rain mn cm | humidity % | barometer mb |
| 20260507000840 | 19 | 158 | 4.8 | 4.8 | 0.00 | 0.00 | 0.00 | 83 | |
| 20260506235840 | 19 | 158 | 6.4 | 6.4 | 0.00 | 0.00 | 0.00 | 82 | |
| 20260506234840 | 20 | 158 | 0.0 | 0.0 | 0.00 | 0.00 | 0.00 | 82 | |
| 20260506233840 | 20 | 180 | 8.0 | 8.0 | 0.00 | 0.00 | 0.00 | 81 | |
| 20260506232839 | 20 | 180 | 12.9 | 12.9 | 0.00 | 0.00 | 0.00 | 81 | |
| 20260506231851 | 20 | 203 | 9.7 | 9.7 | 0.00 | 0.00 | 0.00 | 80 | |
| 20260506231839 | 20 | 203 | 14.5 | 14.5 | 0.00 | 0.00 | 0.00 | 80 | |
| 20260506230839 | 20 | 225 | 14.5 | 14.5 | 0.00 | 0.00 | 0.00 | 79 | |
| 20260506225839 | 20 | 225 | 11.3 | 11.3 | 0.00 | 0.00 | 0.00 | 79 | |
| 20260506224839 | 20 | 225 | 19.3 | 19.3 | 0.00 | 0.00 | 0.00 | 79 | |
| 20260506223839 | 21 | 180 | 14.5 | 14.5 | 0.00 | 0.00 | 0.00 | 78 | |
| 20260506222839 | 21 | 203 | 14.5 | 14.5 | 0.00 | 0.00 | 0.00 | 78 | |
| 20260506221839 | 21 | 225 | 16.1 | 16.1 | 0.00 | 0.00 | 0.00 | 78 | |
| 20260506220839 | 21 | 180 | 12.9 | 12.9 | 0.00 | 0.00 | 0.00 | 78 | |
| 20260506215839 | 21 | 203 | 11.3 | 11.3 | 0.00 | 0.00 | 0.00 | 78 | |
| 20260506214839 | 21 | 203 | 9.7 | 9.7 | 0.00 | 0.00 | 0.00 | 79 | |
| 20260506213851 | 21 | 225 | 14.5 | 14.5 | 0.00 | 0.00 | 0.00 | 79 | |
| 20260506213839 | 21 | 203 | 19.3 | 19.3 | 0.00 | 0.00 | 0.00 | 79 | |
| 20260506212839 | 20 | 225 | 14.5 | 14.5 | 0.00 | 0.00 | 0.00 | 79 | |
| 20260506211839 | 21 | 203 | 19.3 | 19.3 | 0.00 | 0.00 | 0.00 | 78 | |
| 20260506210839 | 20 | 225 | 16.1 | 16.1 | 0.00 | 0.00 | 0.00 | 79 | |
| 20260506205850 | 20 | 225 | 11.3 | 11.3 | 0.00 | 0.00 | 0.00 | 80 | |
| 20260506205839 | 20 | 225 | 12.9 | 12.9 | 0.00 | 0.00 | 0.00 | 80 | |
| 20260506204850 | 20 | 203 | 16.1 | 16.1 | 0.00 | 0.00 | 0.00 | 80 | |
| 20260506204839 | 20 | 203 | 12.9 | 12.9 | 0.00 | 0.00 | 0.00 | 80 | |
| 20260506203839 | 20 | 203 | 19.3 | 19.3 | 0.00 | 0.00 | 0.00 | 80 | |
| 20260506202839 | 20 | 203 | 16.1 | 16.1 | 0.00 | 0.00 | 0.00 | 80 | |
| 20260506201839 | 20 | 225 | 17.7 | 17.7 | 0.00 | 0.00 | 0.00 | 80 | |
| 20260506200839 | 20 | 203 | 17.7 | 17.7 | 0.00 | 0.00 | 0.00 | 80 | |
| 20260506195850 | 20 | 180 | 20.9 | 20.9 | 0.00 | 0.00 | 0.00 | 80 | |
| 20260506195839 | 20 | 203 | 14.5 | 14.5 | 0.00 | 0.00 | 0.00 | 80 | |
| 20260506194839 | 20 | 203 | 11.3 | 11.3 | 0.00 | 0.00 | 0.00 | 80 | |
| 20260506193839 | 20 | 203 | 14.5 | 14.5 | 0.00 | 0.00 | 0.00 | 81 | |
| 20260506192839 | 20 | 225 | 19.3 | 19.3 | 0.00 | 0.00 | 0.00 | 81 | |
| 20260506191850 | 19 | 180 | 16.1 | 16.1 | 0.00 | 0.00 | 0.00 | 82 | |
| 20260506191839 | 19 | 180 | 12.9 | 12.9 | 0.00 | 0.00 | 0.00 | 82 | |
| 20260506190912 | 19 | 203 | 20.9 | 20.9 | 0.00 | 0.00 | 0.00 | 82 | |
| 20260506190839 | 19 | 203 | 20.9 | 20.9 | 0.00 | 0.00 | 0.00 | 82 | |
| 20260506185850 | 18 | 203 | 16.1 | 16.1 | 0.00 | 0.00 | 0.00 | 82 | |
| 20260506185839 | 18 | 203 | 19.3 | 19.3 | 0.00 | 0.00 | 0.00 | 82 | |
| 20260506184850 | 18 | 203 | 16.1 | 16.1 | 0.00 | 0.00 | 0.00 | 82 | |
| 20260506184839 | 18 | 203 | 25.7 | 25.7 | 0.00 | 0.00 | 0.00 | 82 | |
| 20260506183840 | 18 | 203 | 14.5 | 14.5 | 0.00 | 0.00 | 0.00 | 83 | |
| 20260506182840 | 18 | 203 | 24.1 | 24.1 | 0.00 | 0.00 | 0.00 | 83 | |
| 20260506181840 | 18 | 248 | 14.5 | 14.5 | 0.00 | 0.00 | 0.00 | 83 | |
| 20260506180851 | 18 | 203 | 22.5 | 22.5 | 0.00 | 0.00 | 0.00 | 83 | |
| 20260506180840 | 18 | 203 | 17.7 | 17.7 | 0.00 | 0.00 | 0.00 | 83 | |
| 20260506175840 | 18 | 225 | 20.9 | 20.9 | 0.00 | 0.00 | 0.00 | 84 | |
| 20260506174840 | 18 | 180 | 14.5 | 14.5 | 0.00 | 0.00 | 0.00 | 84 | |
| 20260506173851 | 18 | 225 | 19.3 | 19.3 | 0.00 | 0.00 | 0.00 | 82 | |
| 20260506173840 | 18 | 203 | 11.3 | 11.3 | 0.00 | 0.00 | 0.00 | 82 | |
| 20260506172839 | 18 | 135 | 11.3 | 11.3 | 0.00 | 0.00 | 0.00 | 82 | |
| 20260506171839 | 18 | 203 | 6.4 | 6.4 | 0.00 | 0.00 | 0.00 | 82 | |
| 20260506170839 | 18 | 203 | 17.7 | 17.7 | 0.00 | 0.00 | 0.00 | 82 | |
| 20260506165839 | 18 | 203 | 25.7 | 25.7 | 0.00 | 0.00 | 0.00 | 81 | |
| 20260506164852 | 18 | 203 | 24.1 | 24.1 | 0.00 | 0.00 | 0.00 | 82 | |
| 20260506164839 | 18 | 113 | 20.9 | 20.9 | 0.00 | 0.00 | 0.00 | 82 | |
| 20260506163839 | 18 | 135 | 9.7 | 9.7 | 0.00 | 0.00 | 0.00 | 82 | |
| 20260506162851 | 18 | 158 | 16.1 | 16.1 | 0.00 | 0.00 | 0.00 | 82 | |
| 20260506162839 | 18 | 180 | 19.3 | 19.3 | 0.00 | 0.00 | 0.00 | 82 | |
| 20260506161839 | 18 | 158 | 11.3 | 11.3 | 0.00 | 0.00 | 0.00 | 82 | |
| 20260506160839 | 19 | 203 | 16.1 | 16.1 | 0.00 | 0.00 | 0.00 | 79 | |
| 20260506155839 | 20 | 203 | 20.9 | 20.9 | 0.00 | 0.00 | 0.00 | 76 | |
| 20260506154850 | 20 | 158 | 11.3 | 11.3 | 0.00 | 0.00 | 0.00 | 74 | |
| 20260506153851 | 20 | 180 | 24.1 | 24.1 | 0.00 | 0.00 | 0.00 | 73 | |
| 20260506152839 | 20 | 158 | 16.1 | 16.1 | 0.00 | 0.00 | 0.00 | 70 | |
| 20260506152646 | 20 | 158 | 16.1 | 16.1 | 0.00 | 0.00 | 0.00 | 71 | |
| 20260506151851 | 20 | 158 | 16.1 | 16.1 | 0.00 | 0.00 | 0.00 | 71 | |
| 20260506151839 | 20 | 158 | 20.9 | 20.9 | 0.00 | 0.00 | 0.00 | 71 | |
| 20260506150839 | 20 | 180 | 11.3 | 11.3 | 0.00 | 0.00 | 0.00 | 71 | |
| 20260506150350 | 20 | 180 | 17.7 | 17.7 | 0.00 | 0.00 | 0.00 | 70 | |
| 20260506145839 | 20 | 180 | 17.7 | 17.7 | 0.00 | 0.00 | 0.00 | 70 | |
| 20260506144839 | 20 | 23 | 4.8 | 4.8 | 0.00 | 0.00 | 0.00 | 70 | |
| 20260506143839 | 20 | 180 | 19.3 | 19.3 | 0.00 | 0.00 | 0.00 | 70 | |
| 20260506142850 | 20 | 203 | 14.5 | 14.5 | 0.00 | 0.00 | 0.00 | 69 | |
| 20260506142839 | 20 | 203 | 17.7 | 17.7 | 0.00 | 0.00 | 0.00 | 69 | |
| 20260506141839 | 20 | 180 | 9.7 | 9.7 | 0.00 | 0.00 | 0.00 | 70 | |
| 20260506140839 | 20 | 203 | 16.1 | 16.1 | 0.00 | 0.00 | 0.00 | 69 | |
| 20260506135839 | 20 | 225 | 11.3 | 11.3 | 0.00 | 0.00 | 0.00 | 69 | |
| 20260506134850 | 20 | 158 | 16.1 | 16.1 | 0.00 | 0.00 | 0.00 | 69 | |
| 20260506134839 | 20 | 135 | 17.7 | 17.7 | 0.00 | 0.00 | 0.00 | 69 | |
| 20260506133851 | 20 | 203 | 14.5 | 14.5 | 0.00 | 0.00 | 0.00 | 69 | |
| 20260506133839 | 20 | 113 | 17.7 | 17.7 | 0.00 | 0.00 | 0.00 | 69 | |
| 20260506132839 | 20 | 158 | 9.7 | 9.7 | 0.00 | 0.00 | 0.00 | 71 | |
| 20260506131839 | 20 | 180 | 12.9 | 12.9 | 0.00 | 0.00 | 0.00 | 72 | |
| 20260506130839 | 20 | 180 | 12.9 | 12.9 | 0.00 | 0.00 | 0.00 | 72 | |
| 20260506125851 | 20 | 203 | 19.3 | 19.3 | 0.00 | 0.00 | 0.00 | 73 | |
| 20260506125839 | 20 | 158 | 24.1 | 24.1 | 0.00 | 0.00 | 0.00 | 73 | |
| 20260506125322 | 19 | 203 | 20.9 | 20.9 | 0.00 | 0.00 | 0.00 | 74 | |
| 20260506124839 | 19 | 203 | 20.9 | 20.9 | 0.00 | 0.00 | 0.00 | 74 | |
| 20260506123839 | 20 | 135 | 16.1 | 16.1 | 0.00 | 0.00 | 0.00 | 73 | |
| 20260506122851 | 19 | 113 | 11.3 | 11.3 | 0.00 | 0.00 | 0.00 | 76 | |
| 20260506122840 | 19 | 113 | 17.7 | 17.7 | 0.00 | 0.00 | 0.00 | 76 | |
| 20260506121840 | 18 | 158 | 17.7 | 17.7 | 0.00 | 0.00 | 0.00 | 77 | |
| 20260506120851 | 18 | 135 | 16.1 | 16.1 | 0.00 | 0.00 | 0.00 | 77 | |
| 20260506120840 | 18 | 135 | 19.3 | 19.3 | 0.00 | 0.00 | 0.00 | 77 | |
| 20260506115840 | 18 | 158 | 17.7 | 17.7 | 0.00 | 0.00 | 0.00 | 77 | |
| 20260506114840 | 18 | 203 | 14.5 | 14.5 | 0.00 | 0.00 | 0.00 | 80 | |
| 20260506113852 | 18 | 135 | 16.1 | 16.1 | 0.00 | 0.00 | 0.00 | 79 | |
| 20260506113840 | 18 | 135 | 8.0 | 8.0 | 0.00 | 0.00 | 0.00 | 79 | |
| 20260506112840 | 18 | 158 | 12.9 | 12.9 | 0.00 | 0.00 | 0.00 | 80 | |
| 20260506111852 | 18 | 180 | 12.9 | 12.9 | 0.00 | 0.00 | 0.00 | 81 | |
| 20260506111840 | 18 | 180 | 16.1 | 16.1 | 0.00 | 0.00 | 0.00 | 81 | |
| 20260506110840 | 17 | 180 | 12.9 | 12.9 | 0.00 | 0.00 | 0.00 | 81 | |
| 20260506105851 | 17 | 90 | 11.3 | 11.3 | 0.00 | 0.00 | 0.00 | 81 | |
| 20260506105840 | 17 | 113 | 16.1 | 16.1 | 0.00 | 0.00 | 0.00 | 81 | |
| 20260506104839 | 17 | 158 | 14.5 | 14.5 | 0.00 | 0.00 | 0.00 | 82 | |
| 20260506103839 | 17 | 113 | 8.0 | 8.0 | 0.00 | 0.00 | 0.00 | 82 | |
| 20260506102851 | 17 | 180 | 11.3 | 11.3 | 0.00 | 0.00 | 0.00 | 83 | |
| 20260506102839 | 17 | 180 | 12.9 | 12.9 | 0.00 | 0.00 | 0.00 | 83 | |
| 20260506101959 | 16 | 225 | 11.3 | 11.3 | 0.00 | 0.00 | 0.00 | 83 | |
| 20260506101839 | 16 | 225 | 11.3 | 11.3 | 0.00 | 0.00 | 0.00 | 83 | |
| 20260506100851 | 16 | 180 | 16.1 | 16.1 | 0.00 | 0.00 | 0.00 | 83 | |
| 20260506100839 | 16 | 158 | 20.9 | 20.9 | 0.00 | 0.00 | 0.00 | 83 | |
| 20260506095839 | 16 | 135 | 4.8 | 4.8 | 0.00 | 0.00 | 0.00 | 83 | |
| 20260506094851 | 17 | 158 | 11.3 | 11.3 | 0.00 | 0.00 | 0.00 | 83 | |
| 20260506094839 | 17 | 158 | 14.5 | 14.5 | 0.00 | 0.00 | 0.00 | 83 | |
| 20260506093922 | 17 | 180 | 16.1 | 16.1 | 0.00 | 0.00 | 0.00 | 83 | |
| 20260506093851 | 17 | 180 | 16.1 | 16.1 | 0.00 | 0.00 | 0.00 | 83 | |
| 20260506093839 | 17 | 180 | 12.9 | 12.9 | 0.00 | 0.00 | 0.00 | 83 | |
| 20260506092839 | 17 | 180 | 11.3 | 11.3 | 0.00 | 0.00 | 0.00 | 83 | |
| 20260506091850 | 17 | 113 | 12.9 | 12.9 | 0.00 | 0.00 | 0.00 | 83 | |
| 20260506091839 | 17 | 113 | 9.7 | 9.7 | 0.00 | 0.00 | 0.00 | 83 | |
| 20260506090839 | 17 | 180 | 17.7 | 17.7 | 0.00 | 0.00 | 0.00 | 83 | |
| 20260506085850 | 17 | 180 | 8.0 | 8.0 | 0.00 | 0.00 | 0.00 | 83 | |
| 20260506085839 | 17 | 180 | 11.3 | 11.3 | 0.00 | 0.00 | 0.00 | 83 | |
| 20260506084839 | 17 | 203 | 6.4 | 6.4 | 0.00 | 0.00 | 0.00 | 83 | |
| 20260506083839 | 17 | 203 | 12.9 | 12.9 | 0.00 | 0.00 | 0.00 | 83 | |
| 20260506082850 | 17 | 203 | 17.7 | 17.7 | 0.00 | 0.00 | 0.00 | 83 | |
| 20260506082839 | 17 | 203 | 19.3 | 19.3 | 0.00 | 0.00 | 0.00 | 83 | |
| 20260506081839 | 17 | 180 | 14.5 | 14.5 | 0.00 | 0.00 | 0.00 | 83 | |
| 20260506080851 | 17 | 135 | 9.7 | 9.7 | 0.00 | 0.00 | 0.00 | 83 | |
| 20260506080839 | 17 | 180 | 12.9 | 12.9 | 0.00 | 0.00 | 0.00 | 83 | |
| 20260506072850 | 17 | 113 | 9.7 | 9.7 | 0.00 | 0.00 | 0.00 | 82 | |
| 20260506072839 | 17 | 180 | 6.4 | 6.4 | 0.00 | 0.00 | 0.00 | 82 | |
| 20260506071839 | 17 | 180 | 12.9 | 12.9 | 0.00 | 0.00 | 0.00 | 82 | |
| 20260506070839 | 18 | 180 | 12.9 | 12.9 | 0.00 | 0.00 | 0.00 | 82 | |
| 20260506061840 | 18 | 180 | 14.5 | 14.5 | 0.00 | 0.00 | 0.00 | 81 | |
| 20260506060851 | 18 | 135 | 17.7 | 17.7 | 0.00 | 0.00 | 0.00 | 81 | |
| 20260506060840 | 18 | 135 | 14.5 | 14.5 | 0.00 | 0.00 | 0.00 | 81 | |
| 20260506050840 | 18 | 180 | 8.0 | 8.0 | 0.00 | 0.00 | 0.00 | 80 | |
| 20260506044840 | 18 | 158 | 14.5 | 14.5 | 0.00 | 0.00 | 0.00 | 79 | |
| 20260506043840 | 18 | 203 | 8.0 | 8.0 | 0.00 | 0.00 | 0.00 | 79 | |
| 20260506043031 | 18 | 135 | 12.9 | 12.9 | 0.00 | 0.00 | 0.00 | 79 | |
| 20260506042840 | 18 | 135 | 12.9 | 12.9 | 0.00 | 0.00 | 0.00 | 79 | |
| 20260506042012 | 18 | 180 | 11.3 | 11.3 | 0.00 | 0.00 | 0.00 | 78 | |
| 20260506041850 | 18 | 180 | 11.3 | 11.3 | 0.00 | 0.00 | 0.00 | 78 | |
| 20260506041840 | 18 | 113 | 12.9 | 12.9 | 0.00 | 0.00 | 0.00 | 78 | |
| 20260506040839 | 18 | 135 | 14.5 | 14.5 | 0.00 | 0.00 | 0.00 | 77 | |
| 20260506035839 | 18 | 135 | 11.3 | 11.3 | 0.00 | 0.00 | 0.00 | 77 | |
| 20260506034840 | 18 | 225 | 12.9 | 12.9 | 0.00 | 0.00 | 0.00 | 76 | |
| 20260506033839 | 19 | 158 | 11.3 | 11.3 | 0.00 | 0.00 | 0.00 | 76 | |
| 20260506033600 | 19 | 135 | 12.9 | 12.9 | 0.00 | 0.00 | 0.00 | 76 | |
| 20260506032851 | 19 | 135 | 12.9 | 12.9 | 0.00 | 0.00 | 0.00 | 76 | |
| 20260506032839 | 19 | 135 | 14.5 | 14.5 | 0.00 | 0.00 | 0.00 | 76 | |
| 20260506031839 | 19 | 203 | 9.7 | 9.7 | 0.00 | 0.00 | 0.00 | 75 | |
| 20260506031233 | 19 | 180 | 16.1 | 16.1 | 0.00 | 0.00 | 0.00 | 74 | |
| 20260506030839 | 19 | 180 | 16.1 | 16.1 | 0.00 | 0.00 | 0.00 | 74 | |
| 20260506025851 | 19 | 158 | 14.5 | 14.5 | 0.00 | 0.00 | 0.00 | 73 | |
| 20260506025839 | 19 | 158 | 12.9 | 12.9 | 0.00 | 0.00 | 0.00 | 73 | |
| 20260506024839 | 20 | 158 | 8.0 | 8.0 | 0.00 | 0.00 | 0.00 | 72 | |
| 20260506023839 | 20 | 180 | 19.3 | 19.3 | 0.00 | 0.00 | 0.00 | 71 | |
| 20260506022839 | 20 | 158 | 14.5 | 14.5 | 0.00 | 0.00 | 0.00 | 70 | |
| 20260506021851 | 20 | 158 | 12.9 | 12.9 | 0.00 | 0.00 | 0.00 | 68 | |
| 20260506021839 | 20 | 158 | 9.7 | 9.7 | 0.00 | 0.00 | 0.00 | 68 | |
| 20260506020851 | 20 | 225 | 14.5 | 14.5 | 0.00 | 0.00 | 0.00 | 67 | |
| 20260506020839 | 20 | 225 | 16.1 | 16.1 | 0.00 | 0.00 | 0.00 | 67 | |
| 20260506015839 | 20 | 90 | 12.9 | 12.9 | 0.00 | 0.00 | 0.00 | 66 | |
| 20260506014850 | 20 | 135 | 12.9 | 12.9 | 0.00 | 0.00 | 0.00 | 66 | |
| 20260506014839 | 20 | 158 | 9.7 | 9.7 | 0.00 | 0.00 | 0.00 | 66 | |
| 20260506013839 | 20 | 158 | 20.9 | 20.9 | 0.00 | 0.00 | 0.00 | 66 | |
| 20260506012851 | 20 | 135 | 14.5 | 14.5 | 0.00 | 0.00 | 0.00 | 66 | |
| 20260506012839 | 20 | 158 | 19.3 | 19.3 | 0.00 | 0.00 | 0.00 | 66 | |
| 20260506011839 | 20 | 158 | 11.3 | 11.3 | 0.00 | 0.00 | 0.00 | 66 | |
| 20260506010839 | 20 | 158 | 11.3 | 11.3 | 0.00 | 0.00 | 0.00 | 66 | |
| 20260506005852 | 20 | 135 | 14.5 | 14.5 | 0.00 | 0.00 | 0.00 | 66 | |
| 20260506005839 | 20 | 158 | 8.0 | 8.0 | 0.00 | 0.00 | 0.00 | 66 | |
| 20260506004839 | 21 | 113 | 9.7 | 9.7 | 0.00 | 0.00 | 0.00 | 65 | |
| 20260506003852 | 21 | 315 | 8.0 | 8.0 | 0.00 | 0.00 | 0.00 | 63 | |
| 20260506003839 | 21 | 315 | 12.9 | 12.9 | 0.00 | 0.00 | 0.00 | 63 | |
| 20260506002839 | 21 | 113 | 12.9 | 12.9 | 0.00 | 0.00 | 0.00 | 61 | |
| 20260506001852 | 21 | 180 | 12.9 | 12.9 | 0.00 | 0.00 | 0.00 | 58 | |
| 20260506001839 | 21 | 113 | 11.3 | 11.3 | 0.00 | 0.00 | 0.00 | 58 |